World > North America > United States > Minnesota

Hourly Wendell, MN Regional Weather

Feedback E-mail the Weather

Quick WX

Wendell, MN Weather Maps

°F °C°F °C
Wendell Weather Map
UTC Time: 7/7/2022, 04:08
Your Time:

Wendell, MN Regional Weather

Expires:202207070400;;874936
ASUS43 KMPX 070310
RWRMN 
WEATHER ROUNDUP FOR MINNESOTA
NATIONAL WEATHER SERVICE TWIN CITIES/CHANHASSEN MN
1000 PM CDT WED JUL 06 2022


NOTE: "FAIR" INDICATES FEW OR NO CLOUDS BELOW 12,000 FEET WITH NO
SIGNIFICANT WEATHER AND/OR OBSTRUCTIONS TO VISIBILITY. N/A MEANS
CURRENT SKY AND/OR WEATHER CONDITIONS ARE NOT AVAILABLE.


MNZ029>031-032-039>041-046>048-054>057-064-070400-
   West Central Minnesota   
  
CITY           SKY/WX    TMP DP  RH WIND       PRES   REMARKS
FERGUS FALLS   CLEAR     73  66  78 SE6       29.97R                  
WHEATON        CLEAR     73  64  73 SE6       29.99R                  
MORRIS         CLEAR     73  64  73 SE7       30.01R                  
ALEXANDRIA     CLEAR     70  66  87 SE7       30.02F                  
ELBOW LAKE     FAIR      72  68  87 CALM      30.00R                  
WADENA         CLEAR     68  63  83 S3        30.02R                  
GLENWOOD       CLEAR     68  66  94 CALM      30.03R                  
APPLETON         N/A     73  66  78 S3        29.99R                  
BENSON         PTCLDY    72  66  83 CALM      30.01R                  
ORTONVILLE       N/A     73  70  88 S5        29.99R                  
MADISON        PTCLDY    75  70  83 SE3       30.01R                  
WILLMAR        MOCLDY    73  68  83 CALM      30.04R                  
$$

SKY/WX - Weather  TMP - Temperature  DP - Dew Point  RH - Humidity
WIND - Wind Direction/Speed PRES - Barometric Pressure VSB - Visibility
WCI - Wind Chill Index E13G22 Wind - East Wind 13 mph/Gusts of 22 mph

Trending Headlines

Wendell Radar Loop



Wendell Quick Facts


National Two Day Weather Forecast


E-mail the Wendell Weather Forecast

Voice your opinion or tell us about page issues...